• Processing (Info)

  • MPEC 2015-R67 : 2015 RV35

    The following Minor Planet Electronic Circular may be linked-to from your own Web pages, but must not otherwise be redistributed electronically.

    A form allowing access to any MPEC is at the bottom of this page.


    Read MPEC 2015-R66 Read MPEC 2015-R68


    M.P.E.C. 2015-R67                                Issued 2015 Sept. 12, 21:18 UT
    
         The Minor Planet Electronic Circulars contain information on unusual
             minor planets and routine data on comets.  They are published
        on behalf of Division F of the International Astronomical Union by the
              Minor Planet Center, Smithsonian Astrophysical Observatory,
                              Cambridge, MA 02138, U.S.A.
    
                 Prepared using the Tamkin Foundation Computer Network
    
                                  MPC@CFA.HARVARD.EDU
                URL https://www.minorplanetcenter.net/    ISSN 1523-6714
    
                                       2015 RV35
    
    Observations:
         K15R35V* C2015 09 10.49091 00 50 14.122+03 13 18.01         21.5 wLER067F51
         K15R35V  C2015 09 10.50317 00 50 16.270+03 10 33.07         20.6 wLER067F51
         K15R35V  C2015 09 10.55564 00 50 25.601+02 58 46.59         20.6 wLER067F51
         K15R35V _C2015 09 11.53337700 53 49.128-00 41 00.24         19.6 RtER067568
         K15R35V _C2015 09 11.53467900 53 49.351-00 41 17.76         19.7 RtER067568
         K15R35V KC2015 09 12.48135 00 56 59.88 -04 13 29.6          19.9 RoER067291
         K15R35V KC2015 09 12.48312 00 57 00.18 -04 13 53.6          20.6 RoER067291
         K15R35V KC2015 09 12.48493 00 57 00.52 -04 14 17.8          20.7 RoER067291
    
    Observer details:
    291 LPL/Spacewatch II.  Observer R. A. Mastaler.  1.8-m f/2.7 reflector + CCD.
    568 Mauna Kea.  Observers R. J. Wainscoat, D. Woodworth.  Measurers M. Micheli,
        R. J. Wainscoat.  3.6-m Canada-France-Hawaii Telescope + CCD.
    F51 Pan-STARRS 1, Haleakala.  Observers B. Gibson, T. Goggia, N. Primak,
        A. Schultz, M. Willman.  Measurers K. Chambers, S. Chastel, L. Denneau,
        H. Flewelling, M. Huber, E. Lilly, E. Magnier, R. Wainscoat, C. Waters,
        R. Weryk.  1.8-m Ritchey-Chretien + CCD.
    
    Orbital elements:
    2015 RV35                                                Earth MOID = 0.0957 AU
    Epoch 2015 June 27.0 TT = JDT 2457200.5                 MPC
    M 318.20045              (2000.0)            P               Q
    n   0.71884857     Peri.  164.85653     +0.90304464     +0.42291438
    a   1.2341779      Node   169.16330     -0.42382504     +0.90573438
    e   0.1101510      Incl.   23.57406     -0.06987639     -0.02808317
    P   1.37           H   24.1           G   0.15           U   8
    Residuals in seconds of arc
    150910 F51  0.1+  0.2-    150911 568  0.3+  0.1-    150912 291  0.2-  0.1-
    150910 F51  0.2-  0.1-    150911 568  0.2+  0.0     150912 291  0.1+  0.2-
    150910 F51  0.1+  0.4+    150912 291  0.0   0.3+
    
    Ephemeris:
    2015 RV35                a,e,i = 1.23, 0.11, 24                  q = 1.0982
    Date    TT    R. A. (2000) Decl.     Delta      r     Elong.  Phase     V
    2015 08 13    23 01 50.4 +56 07 45   0.2290  1.0999   106.3    62.1    23.3
    ...
    2015 08 28    23 58 33.6 +41 33 52   0.1455  1.0984   124.1    49.6    22.0
    ...
    2015 09 05    00 30 02.9 +22 24 49   0.1133  1.1001   142.2    34.2    21.0
    ...
    2015 09 11    00 52 00.0 +01 19 33   0.1045  1.1025   155.0    22.7    20.5
    2015 09 12    00 55 25.4 -02 25 01   0.1047  1.1030   155.7    22.0    20.5
    2015 09 13    00 58 46.2 -06 07 32   0.1055  1.1035   155.8    21.9    20.5
    ...
    2015 09 19    01 17 02.3 -25 53 59   0.1197  1.1071   147.0    29.6    21.0
    ...
    2015 09 27    01 36 10.2 -42 49 26   0.1565  1.1132   132.0    42.0    21.9
    ...
    2015 10 12    01 56 38.6 -55 44 41   0.2453  1.1286   116.3    52.5    23.2
    
    A. U. Tomatic                (C) Copyright 2015 MPC           M.P.E.C. 2015-R67
    

    Read MPEC 2015-R66 Read MPEC 2015-R68


    MPEC number:

    Enter an MPEC number in one of the following forms:

    • 1997-B01 (the full form)
    • J97B01 (the packed version of the full form)
    • B01 (the abbreviated form)